Weather History for Albany, NY

Change the Weather History Date:

Friday, October 11, 2013

  Actual Average Record
Temperature  
Mean Temperature 58 °F 51 °F  
Max Temperature 70 °F 62 °F 86 °F (1949)
Min Temperature 45 °F 41 °F 22 °F (1943)
Degree Days  
Heating Degree Days 7 14  
Month to date heating degree days 74 131  
Since 1 July heating degree days 246 298  
Cooling Degree Days 0 0  
Month to date cooling degree days 0 0  
Year to date cooling degree days 763 594  
Growing Degree Days 9 (Base 50)    
Moisture  
Dew Point 47 °F    
Average Humidity 67    
Maximum Humidity 93    
Minimum Humidity 40    
Precipitation  
Precipitation 0.00 in 0.13 in 1.15 in (1951)
Month to date precipitation 1.84 1.32  
Year to date precipitation 38.16 30.77  
Snow  
Snow 0.00 in 0.00 in T in (1987)
Month to date snowfall 0.0 0.0  
Since 1 July snowfall 0.0 0.0  
Since 1 September snowfall 0.0 0.0  
Snow Depth 0.00 in    
Sea Level Pressure  
Sea Level Pressure 30.15 in    
Wind  
Wind Speed 2 mph (North)    
Max Wind Speed 9 mph    
Max Gust Speed 12 mph    
Visibility 10 miles    
Events Fog    
T = Trace of Precipitation, MM = Missing Value Source: NWS Daily Summary

Daily Weather History Graph

Daily Weather History Graph

Search for Another Location

Airport:

Trip Planner

Search our weather history database for the weather conditions in past years. The results will help you decide how hot, cold, wet, or windy it might be!

Date:

Astronomy

Oct. 11, 2013 Rise Set
Actual Time 7:04 AM EDT 6:18 PM EDT
Civil Twilight 6:35 AM EDT 6:47 PM EDT
Nautical Twilight 6:02 AM EDT 7:19 PM EDT
Astronomical Twilight 5:30 AM EDT 7:52 PM EDT
Moon 1:48 PM EDT (10/11) 11:57 PM EDT (10/11)
Length of Visible Light 12h 11m
Length of Day
11h 14m
Waxing Crescent, 47% of the Moon is Illuminated
Oct 11
Waxing Crescent
Oct 11
First Quarter
Oct 18
Full
Oct 26
Last Quarter
Nov 3
New

Hourly Weather History & Observations

Time (EDT) Temp. Dew Point Humidity Pressure Visibility Wind Dir Wind Speed Gust Speed Precip Events Conditions
12:51 AM 51.1 °F 48.0 °F 89% 30.17 in 10.0 mi Calm Calm - N/A   Overcast
1:51 AM 51.1 °F 48.0 °F 89% 30.16 in 10.0 mi Calm Calm - N/A   Overcast
2:51 AM 50.0 °F 46.9 °F 89% 30.14 in 10.0 mi Calm Calm - N/A   Overcast
3:51 AM 50.0 °F 46.9 °F 89% 30.14 in 10.0 mi Calm Calm - N/A   Overcast
4:51 AM 50.0 °F 48.0 °F 93% 30.15 in 10.0 mi Calm Calm - N/A   Overcast
5:51 AM 50.0 °F 48.0 °F 93% 30.15 in 10.0 mi Calm Calm - N/A   Overcast
6:51 AM 50.0 °F 46.9 °F 89% 30.16 in 10.0 mi Calm Calm - N/A Fog Mostly Cloudy
7:51 AM 50.0 °F 48.0 °F 93% 30.17 in 10.0 mi Calm Calm - N/A Fog Mostly Cloudy
8:51 AM 52.0 °F 48.0 °F 86% 30.18 in 10.0 mi Calm Calm - N/A   Mostly Cloudy
9:51 AM 54.0 °F 48.0 °F 80% 30.18 in 10.0 mi North 3.5 mph - N/A   Mostly Cloudy
10:51 AM 60.1 °F 48.9 °F 67% 30.18 in 10.0 mi NW 6.9 mph - N/A   Mostly Cloudy
11:51 AM 62.1 °F 48.0 °F 60% 30.16 in 10.0 mi NNW 5.8 mph - N/A   Mostly Cloudy
12:51 PM 64.0 °F 48.0 °F 56% 30.15 in 10.0 mi North 4.6 mph - N/A   Mostly Cloudy
1:51 PM 66.0 °F 46.0 °F 48% 30.13 in 10.0 mi North 4.6 mph - N/A   Mostly Cloudy
2:51 PM 66.9 °F 43.0 °F 42% 30.11 in 10.0 mi North 4.6 mph - N/A   Mostly Cloudy
3:51 PM 70.0 °F 44.1 °F 39% 30.10 in 10.0 mi NNW 8.1 mph - N/A   Mostly Cloudy
4:51 PM 68.0 °F 44.1 °F 42% 30.11 in 10.0 mi North 5.8 mph - N/A   Mostly Cloudy
5:51 PM 66.9 °F 46.0 °F 47% 30.12 in 10.0 mi Calm Calm - N/A   Mostly Cloudy
6:51 PM 60.1 °F 48.9 °F 67% 30.12 in 10.0 mi Calm Calm - N/A   Mostly Cloudy
7:51 PM 57.0 °F 50.0 °F 77% 30.14 in 10.0 mi Calm Calm - N/A   Mostly Cloudy
8:51 PM 57.0 °F 50.0 °F 77% 30.15 in 10.0 mi Calm Calm - N/A   Mostly Cloudy
9:51 PM 53.1 °F 48.9 °F 86% 30.16 in 10.0 mi Calm Calm - N/A   Scattered Clouds
10:51 PM 48.9 °F 46.0 °F 90% 30.17 in 10.0 mi Calm Calm - N/A   Partly Cloudy
11:51 PM 48.9 °F 46.0 °F 90% 30.17 in 10.0 mi NNE 3.5 mph - N/A Fog Shallow Fog